Weather in Bogorodsk

Russia / Nizhny Novgorod Oblast'     56°06′12″N   43°31′00″E
temp.,
°C
wind,
m/s
gust,
m/s
humid.,
%
clouds,
%
prec.,
mm/h
press.,
hPa
HPBL,
m
8 may, sat
sat800:00+5s22815 0.0 101618
03:00+4sse338610 0.0 101640
06:00+6sse36856 0.0 1017153
09:00+11sse576419 0.0 1016640
12:00+14sse5648100 0.0 10141704
15:00+14se685149 0.0 10121397
18:00+13se51067100 0.0 1009550
21:00+11sse61480100 0.0 1008533
9 may, sun
sun900:00+11sse71581100 0.2 1006579
03:00+11sse71588100 0.6 1005681
06:00+11s61289100 0.0 1005673
09:00+11s5987100 0.1 1007682
12:00+13ssw61076100 0.6 10081550
15:00+8w6882100 0.8 1012714
18:00+5wnw61090100 0.1 1015832
21:00+6nw51181100 0.1 10181167
10 may, mon
mon1000:00+4wnw5119383 0.0 1020392
03:00+3nw4108943 0.0 1022315
06:00+4nw5128079 0.0 1025416
09:00+9n69530 0.0 10261047
12:00+12n67460 0.0 10271345
15:00+13n67422 0.0 10281402
18:00+12n46561 0.0 1028289
21:00+7n45600 0.0 103070
11 may, tue
tue1100:00+6ne33685 0.0 103028
03:00+4ne33725 0.0 103147
06:00+6ene267538 0.0 1032162
09:00+12ene58545 0.0 1032703
12:00+15ene564454 0.0 10311006
15:00+17ene56420 0.0 10301220
18:00+16e36600 0.0 1030186
21:00+10e33762 0.0 103027
12 may, wed
wed1200:00+8e36775 0.0 103093
03:00+7e36815 0.0 103080
06:00+9e49780 0.0 1031203
09:00+15e68573 0.0 1030549
12:00+18ese56470 0.0 1030909
15:00+20e564863 0.0 1028994
18:00+17e48638 0.0 1028305
21:00+12e48800 0.0 1028123